Regional Weather Roundup
Issued by NWS

Home | Current Version | Previous Version | Graphics & Text | Print | Product List | Glossary On
Versions: 1 2 3 4 5 6 7 8 9 10 11 12 13 14 15 16 17 18 19 20 21 22 23 24 25 26 27 28 29 30 31 32 33 34 35 36 37 38 39 40 41 42 43 44 45 46 47 48 49 50
000
ASUS43 KIND 272109
RWRIN

WEATHER ROUNDUP FOR INDIANA
NATIONAL WEATHER SERVICE INDIANAPOLIS IN
500 PM EDT SAT MAY 27 2017

NOTE: "FAIR" INDICATES FEW OR NO CLOUDS BELOW 12,000 FEET WITH NO
SIGNIFICANT WEATHER AND/OR OBSTRUCTIONS TO VISIBILITY.

* - STATION DOES NOT REPORT WEATHER SUCH AS PRECIPITATION OR FOG.

+ - STATION NOT QUALITY CONTROLLED BY THE NATIONAL WEATHER SERVICE.
    USE DATA WITH CAUTION...ESPECIALLY DEWPOINT AND RELATIVE
    HUMIDITY OBSERVATIONS.

INZ001>003-010>013-019-020-272200-
NORTHWEST INDIANA

CITY           SKY/WX    TMP DP  RH WIND       PRES   REMARKS
GARY /AIRPORT/ PTSUNNY   66  55  68 NE8       29.87F
KNOX *+        CLOUDY    70  52  52 NE3       29.87F
LA PORTE +     PTSUNNY   73  62  68 E5        29.88F
MICHIGAN CITY+ SUNNY     66  59  77 N6        29.88F
MONTICELLO +   CLOUDY    70  61  73 CALM      29.87F
RENSSELAER +   MOSUNNY   73  61  64 E8        29.86F
VALPARAISO     MOSUNNY   74  63  68 E3        29.86F

$$

LMZ046-743>745-272200-
SOUTHERN LAKE MICHIGAN

STATION/POSITION TIME  TEMP    WIND        PRES    WAVE
                       AIR SEA DIR/SP/G            HT
                 (UTC) (F)     (DEG/KT/KT) (MB)    (FT)
BURNS HARBOR     2040   57      50/  7/  8 1012.5F
MICHIGAN CITY    2040   54      30/  5/  5   N/A
5NW MICH CITY    2100   54 57   60/  6/  6   N/A     1

$$

INZ004-005-014>016-021>024-272200-
NORTH CENTRAL INDIANA

CITY           SKY/WX    TMP DP  RH WIND       PRES   REMARKS
ELKHART        PTSUNNY   73  59  60 CALM      29.88F
GOSHEN         CLOUDY    73  59  61 CALM      29.88F
LOGANSPORT +   PTSUNNY   70  61  73 N5        29.87F
PERU/GRISSOM   MOSUNNY   73  63  68 NW5       29.86F
ROCHESTER +    MOSUNNY   73  63  68 W3        29.88F
SOUTH BEND     PTSUNNY   72  61  68 CALM      29.88F
WARSAW +       CLOUDY    72  61  68 CALM      29.88F

$$

INZ006>009-017-018-025>027-272200-
NORTHEAST INDIANA

CITY           SKY/WX    TMP DP  RH WIND       PRES   REMARKS
ANGOLA *+      CLOUDY    72  63  73 SE5       29.89F
AUBURN +       CLOUDY    72  61  68 NE3       29.89F
FORT WAYNE     CLOUDY    74  63  68 VRB3      29.87S
HUNTINGTON +   CLOUDY   N/A N/A N/A CALM      29.86F
KENDALLVILLE + CLOUDY    72  61  68 E3        29.89F

$$

INZ028-029-035-036-043>045-051>053-272200-
WEST CENTRAL INDIANA

CITY           SKY/WX    TMP DP  RH WIND       PRES   REMARKS
CRAWFORDSVL +  MOSUNNY  -20 -26  75 N6        29.86F WCI -36
GREENCASTLE +  SUNNY     77  63  61 CALM      29.86F
LAFAYETTE      MOSUNNY   70  63  78 N7        29.86F
TERRE HAUTE    SUNNY     79  62  56 CALM      29.84F

$$

INZ030>032-037>040-046>048-054>057-064-065-272200-
CENTRAL INDIANA

CITY           SKY/WX    TMP DP  RH WIND       PRES   REMARKS
CP ATTERBURY + MOSUNNY   82  63  51 SW3       29.84F
COLUMBUS       MOSUNNY   82  59  44 N8        29.83F
FRANKFORT +    CLOUDY    76  66  70 CALM      29.89F
GREENWOOD *+   MOSUNNY   80  64  57 N8        29.86F
INDIANAPOLIS   MOSUNNY   78  63  59 NW3       29.85F
-EAGLE CREEK   SUNNY     76  62  62 N5        29.86F
KOKOMO +       CLOUDY    73  64  73 NE5       29.88F
MT COMFORT *+    N/A    N/A N/A N/A MISG        N/A
SHELBYVILLE    MOSUNNY   82  63  52 W9        29.83F
ZIONSVILLE +   MOSUNNY   72  63  72 N3        29.88F

$$

INZ033-034-041-042-049-050-058-059-272200-
EAST CENTRAL INDIANA

CITY           SKY/WX    TMP DP  RH WIND       PRES   REMARKS
MUNCIE         MOSUNNY   77  64  64 NW7       29.85F
RICHMOND +     MOSUNNY   79  64  61 W12       29.86F

$$

INZ060-061-067>069-081>083-085>088-272200-
SOUTHWEST INDIANA

CITY           SKY/WX    TMP DP  RH WIND       PRES   REMARKS
EVANSVILLE     PTSUNNY   84  69  60 W8        29.82F
HUNTINGBURG *+ PTSUNNY   79  73  83 N7        29.82F
WASHINGTON +   PTSUNNY   82  65  56 NW5       29.82F

$$

INZ062-063-066-070>080-084-089>092-272200-
SOUTH CENTRAL AND SOUTHEAST INDIANA

CITY           SKY/WX    TMP DP  RH WIND       PRES   REMARKS
BEDFORD +      MOSUNNY   82  64  54 W5        29.83F
BLOOMINGTON    SUNNY     82  62  50 SW6       29.83F
MADISON *+     CLOUDY    81  64  57 SW3       29.87S
NORTH VERNON + PTSUNNY   81  68  65 W9        29.85F
SEYMOUR +      CLOUDY    86  66  51 W7        29.82F

$$





USA.gov is the U.S. government's official web portal to all federal, state and local government web resources and services.